Estación de Tierras Nobles

Ultimos registro cada 15 minutos 43
Estación Fecha / Hora Temperatura Humedad Lluvia Velocidad Dirección Radiación Presion
43 Tierras Nobles 08-05-2026 10:30 7,2 56 0 0 30 67 1020,3
42 Tierras Nobles 08-05-2026 10:15 7,1 56 0 0 12 95 1020,4
41 Tierras Nobles 08-05-2026 10:00 7,1 56 0 1,3 29 88 1020,3
40 Tierras Nobles 08-05-2026 09:45 6,9 56 0 0 17 146 1020,3
39 Tierras Nobles 08-05-2026 09:30 6,7 57 0,2 0 20 65 1020,4
38 Tierras Nobles 08-05-2026 09:15 6,7 57 0 1,3 46 51 1020,3
37 Tierras Nobles 08-05-2026 09:00 6,6 58 0 0 38 46 1020,3
36 Tierras Nobles 08-05-2026 08:45 6,6 58 0 0 26 30 1020,1
35 Tierras Nobles 08-05-2026 08:30 6,5 58 0 0 20 54 1020,1
34 Tierras Nobles 08-05-2026 08:15 6,4 59 0 0 20 23 1019,8
33 Tierras Nobles 08-05-2026 08:00 6,4 59 0 0 51 5 1019,7
32 Tierras Nobles 08-05-2026 07:45 6,4 59 0,2 0 349 0 1019,5
31 Tierras Nobles 08-05-2026 07:30 6,5 59 0,4 0 348 0 1019,5
30 Tierras Nobles 08-05-2026 07:15 6,5 59 0,2 0 348 0 1019,6
29 Tierras Nobles 08-05-2026 07:00 6,6 60 0,2 0 32 0 1019,5
28 Tierras Nobles 08-05-2026 06:45 6,6 60 0,2 0,4 54 0 1019,2
27 Tierras Nobles 08-05-2026 06:30 6,6 60 0 1,3 8 0 1019,4
26 Tierras Nobles 08-05-2026 06:15 6,7 60 0 0,9 32 0 1019,4
25 Tierras Nobles 08-05-2026 06:00 6,7 60 0 1,8 36 0 1019,4
24 Tierras Nobles 08-05-2026 05:45 6,8 60 0,2 0,9 17 0 1019,6
23 Tierras Nobles 08-05-2026 05:30 6,9 60 0,6 0,9 24 0 1019,9
22 Tierras Nobles 08-05-2026 05:15 7 60 0,2 0 32 0 1019,8
21 Tierras Nobles 08-05-2026 05:00 7,1 61 0 0,4 32 0 1019,7
20 Tierras Nobles 08-05-2026 04:45 7,2 62 0,2 0,4 13 0 1019,6
19 Tierras Nobles 08-05-2026 04:30 7,3 62 0 1,3 61 0 1019,8
18 Tierras Nobles 08-05-2026 04:15 7,4 63 0,4 0,9 14 0 1020,1
17 Tierras Nobles 08-05-2026 04:00 7,6 64 0 0,4 39 0 1020,3
16 Tierras Nobles 08-05-2026 03:45 7,8 64 0,2 0,9 27 0 1020,1
15 Tierras Nobles 08-05-2026 03:30 8,1 65 0,4 0 22 0 1020,6
14 Tierras Nobles 08-05-2026 03:15 8,1 65 0 0 34 0 1021
13 Tierras Nobles 08-05-2026 03:00 8,1 65 0 0,4 35 0 1020,9
12 Tierras Nobles 08-05-2026 02:45 8,1 65 0 0 93 0 1020,8
11 Tierras Nobles 08-05-2026 02:30 8,1 65 0 0 101 0 1020,9
10 Tierras Nobles 08-05-2026 02:15 8,1 65 0 0 101 0 1021,4
9 Tierras Nobles 08-05-2026 02:00 8,1 66 0 0 101 0 1021,5
8 Tierras Nobles 08-05-2026 01:45 8 66 0 0 101 0 1021,4
7 Tierras Nobles 08-05-2026 01:30 8 66 0 0 115 0 1021,7
6 Tierras Nobles 08-05-2026 01:15 8,1 66 0 0 115 0 1022,2
5 Tierras Nobles 08-05-2026 01:00 8,1 66 0 0 115 0 1022,5
4 Tierras Nobles 08-05-2026 00:45 8,1 66 0 0 116 0 1022,3
3 Tierras Nobles 08-05-2026 00:30 8,1 66 0 0 115 0 1022,5
2 Tierras Nobles 08-05-2026 00:15 8 66 0 0 116 0 1022,6
1 Tierras Nobles 08-05-2026 00:00 7,9 66 0 0 127 0 1022,9